User: anonymous   Login
Location: Newsoms
(36.6240°N, 77.1250°W)
Time: 03:52:08
(UTC-04:00)
Language:

BREEZE-M DEB (TANK) - Orbit

View from above orbital plane
View from above orbital plane
View from above satellite
View from above satellite

Ground track
Ground track

The orbit data is extracted from the following two-line orbital elements,

1 29649U 06056B   17114.72893357 +.00002230 +00000-0 +61129-3 0  9994
2 29649 049.4871 272.7735 5368673 128.0094 293.8711 04.99452842185114
Epoch (UTC): 24 April 2017 17:29:39
Eccentricity: 0.5368673
inclination: 49.4871°
perigee height: 317 km
apogee height: 15840 km
right ascension of ascending node: 272.7735°
argument of perigee: 128.0094°
revolutions per day: 4.99452842
mean anomaly at epoch: 293.8711°
orbit number at epoch: 18511

The dashed part of the orbit path shows where the satellite is in the earth's shadow,  

DLR